Theta_e
311 310 310 311 312 316 317 315 313 314 314 312 313 313 313 315 317 317 317 318 319 334 339 339 336 328 336 339 339 340 341 344 341 337 336 346 348 348 349 347 348 347 345 340 337 336 336 336 334 334 333 333 327 320 317 318 322 324 323 321 318 315 313 310 310 310 310 310 310 311 311 312 312 312 311 311 311 314 317 318 319 320 323 326 331 334 335 335 334 334 334 334 334 332 330 329 328
310 309 310 312 313 316 318 316 313 314 314 312 313 313 313 314 317 317 318 318 318 338 343 341 340 335 339 339 339 340 342 343 342 345 347 348 348 349 348 347 347 347 345 340 337 337 337 336 334 334 334 333 325 318 317 317 319 320 318 318 316 314 311 310 310 310 310 310 311 311 312 312 313 312 311 311 311 313 317 319 319 319 321 325 330 333 333 333 333 333 334 334 332 330 329 328 327
309 309 310 314 315 316 319 317 313 313 312 311 312 313 314 314 317 316 318 317 318 336 341 339 340 339 339 336 337 338 341 343 344 348 348 348 348 349 349 348 347 348 346 340 337 338 337 337 335 334 334 333 324 317 316 317 318 317 317 316 314 313 310 310 310 310 310 310 311 311 312 313 313 312 311 311 311 313 316 318 319 318 320 324 328 330 331 332 331 331 331 329 327 326 328 329 326
309 309 312 316 318 318 318 316 315 313 310 311 311 313 314 315 318 316 318 317 318 330 335 339 342 341 341 336 337 339 344 345 347 348 348 348 347 348 349 349 348 348 346 340 338 338 338 338 335 334 334 333 324 316 316 316 317 316 316 315 314 312 310 310 310 310 310 310 311 312 313 313 314 313 312 311 311 313 315 316 318 318 319 322 325 327 329 329 328 326 324 324 323 325 327 326 322
309 310 314 317 318 319 318 316 315 313 310 312 311 313 314 315 317 315 318 317 320 325 327 338 343 339 341 342 342 344 346 347 348 347 349 348 346 348 349 349 349 349 346 340 339 339 339 337 335 334 334 333 324 316 316 316 317 316 315 314 314 312 311 310 310 310 310 310 311 311 313 313 314 313 312 311 311 312 314 316 316 318 319 320 322 324 325 325 323 321 320 321 322 322 321 318 316
309 311 317 318 317 318 317 315 315 314 314 314 312 315 315 315 316 317 319 317 324 330 324 332 341 340 343 346 344 346 346 347 347 347 348 347 346 347 348 349 350 349 345 341 339 340 339 337 335 334 334 333 324 317 316 316 316 315 315 314 314 312 311 311 310 310 310 311 311 311 312 313 313 313 313 311 311 311 312 314 316 318 319 320 321 323 323 322 321 320 320 319 319 318 317 316 315
310 313 319 317 316 316 317 316 315 316 316 314 314 316 316 317 317 317 319 318 323 331 329 333 340 342 344 346 345 345 346 346 347 347 347 347 346 346 347 349 350 348 344 341 340 340 339 337 335 334 334 333 326 318 316 316 316 315 314 314 314 313 312 311 311 311 311 311 311 311 311 312 313 313 313 312 311 311 311 312 315 317 319 320 320 321 321 321 320 319 319 318 317 317 317 316 314
312 315 319 317 316 316 317 317 316 317 315 314 315 317 318 319 318 318 319 319 317 324 335 342 343 341 344 346 347 345 345 346 346 346 347 347 346 345 346 348 350 347 342 341 340 339 338 336 335 334 334 333 327 321 317 316 315 315 314 314 314 314 313 312 311 311 311 311 311 311 311 312 312 312 313 312 311 311 310 311 314 316 318 319 319 320 320 320 319 319 319 319 319 319 319 316 312
314 316 318 316 315 315 315 315 315 316 315 315 316 317 319 318 318 318 318 319 317 319 335 346 341 338 345 347 348 346 346 346 346 346 346 348 347 346 346 348 348 345 342 340 339 339 337 336 335 334 335 333 329 323 318 316 315 314 314 313 314 314 314 313 313 312 312 311 311 311 311 311 311 312 312 312 311 311 311 310 312 315 318 319 319 320 320 320 319 320 320 320 320 321 321 316 312
316 316 316 315 314 314 314 314 314 314 314 315 316 317 317 317 317 317 317 317 319 324 338 345 341 342 346 348 348 346 346 345 346 346 347 348 348 346 346 347 347 344 341 339 338 337 336 336 335 335 335 334 331 325 320 317 315 315 314 313 313 314 314 314 314 313 313 313 312 311 311 311 311 311 312 312 311 311 311 311 311 314 317 318 320 320 320 320 319 320 321 322 322 323 322 317 313
317 316 314 314 313 312 312 312 313 314 314 315 316 317 316 317 315 316 317 316 323 333 343 344 342 345 347 348 347 345 346 346 346 347 347 349 349 348 347 347 346 345 341 338 337 336 336 336 336 335 335 335 333 327 321 318 317 318 318 316 315 314 314 314 314 314 314 313 313 312 311 311 310 311 311 312 312 311 311 311 311 312 315 317 319 320 321 320 320 320 322 323 324 323 322 319 315
317 316 314 314 314 312 313 313 314 315 316 316 317 318 315 314 315 317 315 317 331 342 344 343 341 344 346 348 347 345 345 346 346 347 348 349 350 349 348 347 346 345 342 339 337 336 336 336 336 335 336 336 334 329 323 318 319 323 324 323 321 319 318 317 317 316 315 314 313 313 312 311 310 311 311 312 313 312 311 311 311 311 313 315 318 320 321 320 320 320 322 324 325 324 322 321 319
317 315 314 314 313 314 314 314 315 316 318 318 316 316 313 313 315 316 317 326 341 344 342 343 340 342 346 348 347 345 346 346 346 347 348 349 349 349 350 348 346 345 343 340 337 337 336 336 336 336 336 336 335 331 323 318 322 327 328 329 328 327 325 323 323 321 320 319 317 314 313 312 311 310 311 312 314 312 311 311 311 311 311 313 316 319 321 320 320 320 322 325 326 325 324 324 322
317 316 315 313 313 314 314 314 314 316 317 317 315 313 314 319 317 316 327 338 344 344 342 342 340 342 346 347 346 345 346 346 346 346 348 348 349 349 349 348 346 345 343 340 337 337 336 336 336 337 337 337 335 332 325 320 323 329 331 332 332 332 331 330 329 328 328 326 324 321 317 315 313 311 311 312 315 314 312 311 311 310 311 312 314 317 320 320 320 321 322 324 326 326 325 325 324
317 316 316 315 314 314 314 314 314 315 316 316 314 311 317 329 326 326 338 342 343 344 344 343 341 341 344 346 346 346 347 346 345 346 348 347 347 348 347 347 346 344 343 341 339 339 338 337 337 337 338 338 337 334 328 323 325 330 332 333 333 333 333 333 333 332 332 331 329 327 324 321 317 314 312 311 314 315 313 312 311 310 310 311 312 315 318 320 321 321 323 324 325 326 326 325 324
317 315 315 316 314 313 314 314 314 315 316 315 314 312 315 329 335 337 339 340 344 345 343 343 342 341 342 343 344 345 347 346 345 346 347 346 346 346 346 346 346 344 342 341 341 340 339 338 337 338 339 339 338 336 332 328 327 330 332 333 333 334 334 334 334 334 333 333 331 331 329 327 325 320 315 312 314 315 315 314 312 310 310 310 311 313 316 319 322 322 324 326 325 325 325 325 324
317 316 315 315 313 313 314 314 315 314 316 314 313 313 311 322 338 342 340 341 345 344 344 344 342 342 342 342 343 345 347 346 345 345 345 345 345 345 345 345 345 343 342 341 340 340 340 338 337 338 339 338 338 337 335 333 331 332 333 334 334 334 334 334 334 334 334 334 333 332 331 330 329 327 322 317 314 315 314 314 314 312 310 310 311 311 314 318 321 323 325 328 327 325 326 325 324
317 316 316 315 314 314 314 315 315 313 315 315 313 314 311 320 342 344 342 344 345 344 344 343 343 343 343 342 342 346 347 346 345 344 344 344 344 344 343 343 343 343 341 340 339 339 340 339 338 338 338 337 337 338 337 336 335 334 335 335 335 335 335 334 334 334 335 335 334 333 333 331 329 328 328 323 317 316 315 315 316 314 311 310 311 311 313 318 321 323 325 328 329 327 327 326 324
316 315 315 315 314 313 313 314 313 312 314 314 314 314 310 320 340 342 341 344 344 344 343 342 343 343 344 343 343 347 347 346 344 343 344 343 343 343 342 342 342 342 341 340 339 339 339 339 338 337 336 336 336 337 338 338 337 336 336 336 336 336 336 335 335 335 335 335 334 333 335 334 331 329 328 327 321 317 316 317 317 316 314 310 310 312 314 318 321 323 325 329 330 329 329 327 325
315 314 315 315 315 313 313 313 313 314 313 314 314 314 311 315 325 333 341 343 342 343 343 344 344 343 344 343 344 347 347 346 344 342 343 342 342 342 342 342 341 341 340 339 340 339 338 337 337 336 335 335 335 336 336 337 337 336 336 336 337 337 337 336 335 335 335 335 334 334 334 334 333 332 330 329 326 321 317 317 318 318 316 312 311 313 316 320 322 323 326 329 330 329 329 328 326
316 314 316 315 312 313 315 314 314 314 312 313 313 313 314 314 315 327 342 340 338 342 341 341 340 341 342 342 345 347 347 346 343 342 343 342 341 342 342 341 341 340 339 339 340 340 337 335 334 333 333 334 334 334 334 334 334 333 333 333 336 337 337 337 336 336 336 335 334 334 334 333 335 333 333 332 330 327 321 318 320 320 319 315 312 314 318 322 324 325 328 330 330 330 330 329 327
315 314 316 315 312 313 315 314 314 313 312 312 312 314 314 314 317 331 341 331 328 336 336 336 336 336 338 340 344 346 347 346 343 342 343 341 341 340 339 339 340 339 338 339 339 339 336 332 330 330 331 332 332 332 331 331 330 330 330 332 336 337 337 336 336 336 335 335 334 333 333 335 335 332 332 333 331 330 325 321 321 321 321 317 313 315 320 324 325 328 330 331 330 330 330 329 327
314 314 313 315 314 314 315 314 314 313 312 312 313 314 313 314 315 328 338 326 319 327 332 335 335 336 337 339 344 347 347 346 344 342 342 342 340 339 339 338 338 338 338 338 337 337 334 330 330 329 329 330 330 330 329 329 329 330 331 332 335 336 336 336 336 335 334 334 333 332 333 335 335 331 330 331 330 331 328 323 321 323 322 319 316 317 321 325 327 329 331 331 331 330 330 330 328
314 314 313 315 314 314 315 314 315 314 312 312 313 312 312 314 312 321 332 325 316 322 331 334 335 337 337 340 344 346 346 345 344 343 342 342 341 340 339 339 338 338 338 337 336 336 334 332 330 328 328 328 328 328 328 329 329 329 330 330 333 334 334 335 335 335 334 333 332 332 334 336 336 331 329 330 330 330 329 326 324 325 324 321 319 319 322 326 328 330 331 331 331 332 331 330 329
314 315 314 315 314 314 315 315 315 314 312 312 312 311 312 313 312 317 323 323 323 326 331 333 334 337 338 340 344 346 345 345 344 343 342 342 343 342 341 342 341 341 339 338 338 337 336 335 332 330 328 327 328 328 329 329 329 329 329 330 332 333 333 333 334 334 333 332 331 333 336 336 335 331 329 330 330 330 330 328 327 327 325 323 322 321 322 325 328 330 330 331 331 332 331 330 330
314 316 314 315 315 315 316 315 315 313 312 312 311 312 312 311 313 314 317 325 332 332 332 334 335 337 338 341 344 345 345 344 344 343 342 342 343 343 343 343 343 343 342 340 339 338 337 336 334 331 328 328 329 330 330 330 330 330 329 330 331 331 331 331 331 332 332 331 331 333 336 336 334 332 329 329 328 329 330 328 327 327 326 325 324 324 323 324 327 329 330 330 331 332 331 329 329
314 315 314 316 315 315 315 314 313 312 312 312 312 312 312 312 312 315 321 331 338 335 334 335 336 337 337 340 344 344 344 344 344 343 342 342 342 343 343 343 343 343 343 341 339 338 338 337 335 331 328 328 330 331 332 331 331 331 330 329 329 330 330 330 331 332 331 331 331 333 336 335 333 331 328 326 325 328 329 327 326 326 326 326 326 326 326 324 324 327 329 329 331 332 331 329 328
314 314 314 314 314 313 313 312 312 312 313 312 312 312 312 313 312 317 328 337 340 336 334 337 337 338 338 340 344 344 344 343 343 342 342 342 342 343 342 343 343 343 343 341 340 339 338 338 336 333 330 329 329 330 331 332 332 331 331 330 329 330 330 330 331 331 330 330 331 334 335 334 333 329 327 326 327 329 330 328 326 326 325 326 326 327 327 326 325 325 327 329 330 331 331 329 329
313 312 313 313 312 312 313 312 311 311 312 312 312 313 313 315 311 319 335 341 341 336 335 339 338 338 339 341 343 344 343 343 343 343 342 342 342 342 342 343 342 342 342 341 341 340 339 338 337 336 333 330 329 330 331 331 332 332 331 331 330 329 329 329 329 329 329 329 330 333 335 334 331 328 326 328 329 331 331 330 328 327 326 325 325 326 327 328 327 326 326 327 329 330 331 330 329
311 311 312 314 313 313 313 310 310 310 312 312 313 313 313 316 312 320 339 343 339 339 340 340 339 339 339 341 344 344 343 344 344 343 343 342 343 343 343 342 342 343 342 341 341 340 339 339 337 336 334 330 329 330 331 331 331 331 331 331 331 330 329 328 328 328 328 328 330 333 336 333 329 327 327 328 331 332 331 330 329 329 329 327 325 324 326 328 328 328 327 327 328 329 330 330 329
311 311 311 312 313 313 312 309 310 311 312 311 313 313 312 317 312 317 338 342 335 339 342 340 339 339 339 341 343 344 343 344 343 343 343 341 343 344 343 343 342 342 342 340 340 339 339 339 338 336 332 329 329 330 330 330 331 331 331 331 331 330 330 329 328 327 327 327 330 333 335 332 329 328 327 328 331 332 331 330 329 329 330 328 326 323 324 328 328 328 328 328 328 328 329 329 327
310 312 312 311 311 313 312 310 310 311 312 311 312 314 312 316 314 310 331 343 340 340 342 341 340 340 339 338 341 343 344 343 343 342 342 342 342 344 344 343 342 341 340 339 339 339 339 339 338 336 333 330 329 330 330 331 331 331 331 331 330 331 331 330 328 327 328 328 330 333 333 331 329 329 327 328 331 332 331 331 330 330 330 328 327 324 322 326 328 328 328 328 328 328 328 327 326
310 312 313 311 311 312 311 311 310 310 311 311 311 314 313 314 314 310 324 342 343 343 344 342 342 342 342 338 339 343 343 342 342 341 341 342 342 344 344 344 343 342 341 339 339 338 338 339 339 338 337 336 334 334 335 335 336 335 335 333 331 331 331 331 329 327 328 329 330 331 331 331 329 328 328 328 330 332 332 331 331 330 330 328 327 326 323 324 327 328 328 328 328 328 327 326 326
311 312 313 311 311 311 311 312 311 310 311 313 312 313 314 313 313 316 328 342 344 343 344 342 342 342 342 341 340 342 343 342 341 339 341 342 342 343 344 345 344 343 343 341 340 339 339 340 340 340 340 340 339 339 339 339 339 339 338 336 333 331 331 332 329 327 328 329 329 328 328 330 330 328 330 329 329 331 331 331 331 331 330 329 328 327 327 325 324 326 328 328 328 327 327 326 326
312 312 313 311 311 311 311 312 311 312 313 313 313 313 314 312 311 315 325 335 342 343 342 342 342 341 342 342 342 343 342 342 341 340 340 341 342 343 344 345 345 344 343 343 341 340 341 341 341 341 341 341 341 341 340 340 340 339 337 336 335 334 333 333 330 328 328 329 329 327 326 328 328 329 332 332 330 330 331 330 331 332 331 330 330 329 329 327 325 325 326 327 327 327 327 327 327
312 312 313 312 311 311 311 312 311 311 314 314 314 313 312 313 315 317 319 323 332 338 339 341 341 341 342 341 342 342 342 342 341 340 339 341 342 343 344 345 345 344 343 343 342 341 341 342 342 341 341 341 341 341 340 340 339 339 337 336 335 335 335 333 330 329 329 329 329 327 326 326 327 329 330 331 330 330 331 330 330 332 331 331 331 330 330 329 327 327 326 327 327 327 327 328 329
312 311 312 311 311 312 311 312 310 310 314 314 312 313 314 317 321 323 323 321 326 331 335 340 341 341 342 341 342 342 342 342 340 338 337 340 342 343 345 345 345 344 343 343 342 342 341 341 342 341 341 340 339 339 339 339 339 339 339 337 336 336 336 335 333 331 330 330 330 329 327 326 327 329 329 330 330 330 331 330 328 329 331 332 331 331 330 329 329 329 329 329 329 329 329 330 330
312 311 311 310 311 312 311 311 311 311 314 313 312 316 318 320 322 326 327 326 327 327 331 338 340 341 342 341 342 341 342 342 340 339 338 339 341 343 344 345 345 342 340 340 337 337 337 338 338 338 339 339 338 339 339 339 338 338 337 337 337 336 336 336 334 333 331 331 331 330 329 328 329 330 330 331 332 331 331 330 327 326 328 331 332 332 331 330 330 330 331 330 330 331 331 331 329
313 311 311 311 311 311 311 311 311 311 313 313 315 320 320 318 320 325 328 328 328 327 328 334 337 340 341 341 341 341 341 341 340 341 340 340 341 343 344 343 340 335 334 334 332 333 334 333 332 331 335 339 339 339 338 336 336 334 334 335 335 334 334 335 335 334 332 331 332 331 330 330 331 331 331 332 332 331 332 332 329 326 326 329 331 332 331 331 330 330 330 330 331 332 332 331 329
313 312 311 311 310 311 311 312 312 312 312 314 318 322 321 320 321 325 328 328 329 329 329 331 333 336 338 339 341 341 341 341 341 341 340 340 341 342 340 336 333 332 333 333 332 333 332 330 327 327 335 339 338 337 335 335 334 333 334 336 335 334 334 335 335 334 332 332 332 332 331 331 332 332 333 333 331 330 330 331 331 329 328 328 331 332 331 331 329 329 330 331 331 331 331 330 330
313 313 312 311 311 311 312 311 312 312 312 315 318 321 322 323 324 326 327 328 329 330 331 331 331 332 334 336 338 339 340 340 341 341 341 341 340 338 336 335 334 334 334 333 331 330 330 329 327 328 334 336 335 334 334 334 335 335 336 336 335 334 334 334 335 334 333 332 332 331 331 331 331 332 333 332 330 330 330 330 330 331 330 329 330 331 331 330 329 329 330 331 332 331 330 330 330
312 313 312 312 312 312 312 311 313 314 313 313 313 316 320 322 326 326 326 328 328 329 331 331 331 332 332 333 334 335 336 337 339 340 341 340 337 336 338 339 338 336 334 330 326 325 328 329 327 329 333 334 334 334 333 333 334 335 335 334 334 333 333 334 334 334 333 333 332 332 331 331 331 332 332 331 329 330 330 330 329 331 331 329 330 331 330 330 329 329 331 332 332 331 330 330 330
312 313 312 311 312 312 312 312 312 313 314 312 310 314 319 322 326 326 325 328 327 328 329 330 331 331 332 332 333 334 334 335 337 338 339 338 336 337 338 338 336 335 334 330 325 323 324 326 327 329 333 334 334 334 333 333 334 334 333 333 333 332 333 334 334 334 333 333 332 332 331 331 331 332 332 331 330 330 330 330 330 330 331 330 330 330 330 330 329 330 332 333 332 331 331 331 330
312 314 312 310 311 312 312 312 312 313 314 313 311 315 319 322 325 325 326 328 327 327 328 329 330 330 331 332 332 333 334 335 336 336 337 336 336 337 336 335 334 334 334 330 327 326 326 326 328 330 332 334 334 334 334 334 335 334 333 332 331 331 332 332 332 331 329 329 329 329 330 330 331 332 331 329 329 330 329 330 330 330 331 331 330 329 329 330 330 331 332 333 331 330 330 330 330
312 312 310 310 311 311 312 311 312 314 314 313 313 314 319 323 325 325 326 329 329 329 328 327 329 329 330 331 331 332 332 333 333 333 334 334 334 335 335 335 334 333 334 330 327 330 331 330 331 332 332 333 333 333 334 333 333 333 331 330 330 331 331 331 330 327 326 327 328 328 330 330 330 331 330 329 329 328 328 329 330 330 331 332 330 329 329 330 331 331 331 331 330 329 329 329 330
310 308 309 310 311 312 312 312 313 315 314 314 314 314 318 323 325 326 328 330 330 329 329 328 329 329 329 330 330 331 331 331 331 330 331 331 332 333 333 333 332 332 333 332 330 332 334 333 332 332 332 332 333 333 333 332 332 331 331 331 331 330 330 331 330 328 328 329 329 328 329 330 330 330 331 331 330 328 328 328 329 330 331 331 330 328 329 331 331 331 330 330 329 329 329 329 330
308 309 310 311 311 312 313 313 314 314 314 313 313 314 317 320 324 327 328 330 330 329 329 329 329 329 329 328 328 328 328 328 328 329 329 329 330 331 332 332 331 331 331 332 332 332 333 332 331 331 331 331 332 333 332 332 331 330 331 331 331 330 330 330 329 328 328 329 329 328 328 329 330 331 331 330 329 330 330 330 330 330 330 330 329 328 329 330 330 330 330 329 329 329 330 330 330
310 311 312 312 313 313 313 314 314 313 314 313 312 312 315 320 326 328 328 329 328 328 329 329 329 329 327 326 326 325 326 326 327 328 327 328 329 329 330 331 330 330 330 331 331 331 331 331 331 331 330 330 331 331 331 331 331 331 331 330 330 331 330 329 327 326 326 327 328 328 328 329 330 331 331 330 329 330 331 330 330 330 329 329 328 327 328 329 330 331 330 329 329 330 330 330 329
310 312 312 311 313 314 314 314 314 314 314 313 311 313 317 323 327 328 328 328 327 328 330 329 328 327 325 325 324 324 324 325 326 326 326 327 327 328 328 329 330 330 331 331 331 331 331 331 331 331 331 330 330 330 331 331 331 331 331 331 331 331 329 327 326 325 326 326 327 328 328 329 331 331 331 330 329 330 330 330 330 330 329 328 328 327 328 329 330 331 330 328 328 330 331 330 329
310 311 312 312 313 314 314 313 313 314 314 312 312 315 322 327 326 327 327 327 328 328 327 327 326 325 324 323 323 322 322 324 324 324 325 325 326 327 327 328 328 329 329 330 330 330 330 330 330 330 330 330 329 329 330 330 330 330 330 331 331 330 329 327 326 326 327 327 327 328 329 330 330 331 332 331 330 329 330 330 330 330 329 328 329 329 329 329 329 329 329 328 329 330 330 329 328
310 311 312 312 314 315 314 313 314 314 313 315 316 317 324 329 327 326 327 327 328 328 326 325 324 323 323 322 321 321 321 322 323 323 323 324 324 325 325 326 326 326 327 327 328 328 328 328 328 328 328 328 328 329 329 329 329 329 328 329 329 329 328 327 327 328 328 329 329 328 329 330 331 331 332 331 331 330 330 331 331 330 329 328 329 329 329 328 328 329 329 329 329 330 330 329 329
310 310 311 313 314 315 314 312 314 316 314 315 319 322 324 327 326 325 326 327 327 327 325 323 322 321 321 320 319 319 320 322 323 323 323 324 324 323 323 323 324 325 325 325 325 325 325 326 326 326 327 327 327 327 328 328 328 328 328 328 328 328 328 328 328 329 329 328 328 328 328 330 331 332 332 331 331 331 330 330 331 330 329 329 328 329 329 328 328 329 329 329 329 330 330 329 329
311 310 312 311 312 315 315 311 311 315 315 315 319 325 327 326 327 326 326 328 327 326 324 322 321 320 319 318 317 317 319 320 321 322 322 323 323 322 322 323 324 325 324 324 324 324 325 325 325 326 326 326 327 326 326 327 327 328 328 328 328 328 329 329 329 329 328 327 327 327 327 328 330 331 332 331 330 330 330 329 330 330 329 329 328 328 328 327 328 329 329 330 330 330 330 330 329
312 312 312 310 310 314 315 313 312 313 316 318 320 327 328 328 329 328 327 328 327 325 323 321 320 318 317 316 315 315 316 318 319 320 320 321 321 321 322 322 323 324 323 324 324 324 325 325 325 326 326 326 327 326 326 327 327 328 328 328 328 329 329 329 328 328 327 325 325 325 326 328 331 331 332 331 329 329 330 330 330 330 330 329 328 327 327 327 326 326 329 330 330 330 329 329 329
311 312 312 311 313 314 313 314 314 312 315 320 322 324 326 327 329 328 329 329 328 324 320 319 318 317 316 314 314 315 316 317 318 318 319 319 319 319 320 320 320 321 321 322 322 323 324 324 324 325 325 325 325 326 326 326 327 327 328 328 327 328 329 328 327 326 326 325 325 325 326 328 331 332 332 331 329 328 329 330 331 330 330 330 328 326 326 327 325 325 327 329 329 329 329 329 329
310 311 311 312 314 314 313 314 314 314 315 320 324 324 324 325 326 327 328 328 326 322 319 317 316 315 314 314 314 314 315 316 316 316 316 316 316 317 317 318 318 318 319 320 320 321 321 322 323 323 323 324 324 325 325 325 326 327 327 328 327 327 327 327 326 325 326 327 327 326 326 327 330 331 332 331 329 328 329 329 330 330 330 330 329 327 326 327 326 324 325 327 329 329 329 329 329
311 312 312 313 312 312 313 313 311 313 316 319 324 324 323 322 322 324 328 327 323 320 318 316 315 314 313 312 313 313 314 315 316 316 316 315 315 315 316 316 317 317 317 318 318 319 320 320 321 322 322 322 322 323 323 324 325 325 326 327 327 326 326 326 325 325 326 328 328 329 328 329 330 331 332 331 328 328 329 328 328 329 330 329 329 327 326 326 326 325 325 327 328 328 328 329 328
313 314 313 314 314 312 313 313 310 312 315 318 322 323 321 320 320 324 327 325 321 319 317 315 314 313 312 312 313 314 315 315 315 315 315 314 314 314 314 315 315 316 316 316 317 318 319 320 320 321 321 321 321 321 322 322 322 323 324 326 327 327 327 326 324 324 326 326 327 329 329 330 331 331 331 330 328 328 328 328 329 329 329 329 328 328 326 325 325 325 326 327 328 328 328 329 328
Wind_Speed
2 3 4 5 6 7 4 3 1 2 0 2 1 1 2 3 2 3 4 4 3 2 2 5 3 4 3 3 5 5 5 3 1 1 2 3 9 12 14 17 21 27 30 29 26 25 22 20 19 18 16 14 13 14 16 16 16 16 15 15 14 13 13 13 14 14 14 13 13 13 13 12 11 11 11 11 13 14 15 17 19 20 22 22 22 21 21 20 20 19 18 17 16 15 15 14 14
3 4 5 6 7 5 2 2 1 0 1 3 2 2 0 1 1 3 4 5 3 3 5 5 2 2 2 7 9 8 6 5 4 6 6 8 13 13 13 17 21 27 31 29 27 25 23 20 19 18 16 13 12 14 16 16 16 16 16 15 15 14 13 14 15 14 14 13 13 13 12 11 11 12 11 11 12 13 14 16 18 19 20 21 21 20 20 18 17 17 16 15 14 14 14 14 14
4 6 7 7 6 4 3 1 1 1 2 4 2 3 0 1 4 3 2 4 5 4 2 5 3 2 1 5 5 3 4 5 5 8 9 11 13 14 14 15 22 28 30 28 27 25 23 21 19 18 16 13 12 13 16 16 16 16 16 16 15 14 14 14 15 14 13 13 13 12 12 11 11 12 12 12 11 13 14 15 17 17 18 19 19 19 18 17 15 15 14 13 13 14 14 14 13
5 7 8 8 6 4 3 0 1 2 3 3 2 2 3 3 3 2 2 7 9 7 7 5 2 1 4 1 3 5 6 6 5 7 10 10 12 16 15 16 23 28 28 27 26 24 23 21 20 18 16 13 12 13 15 15 15 16 16 16 15 14 13 14 14 14 13 12 12 12 11 10 11 11 12 12 11 13 14 14 16 16 17 18 18 18 17 15 14 13 13 13 13 14 14 13 14
7 9 9 7 4 2 2 0 1 3 4 2 1 0 2 3 1 2 5 12 12 9 10 3 2 1 3 5 4 4 5 5 6 6 9 10 13 16 15 18 24 27 27 27 25 24 22 21 20 18 16 13 12 12 14 14 14 15 16 15 14 14 13 14 14 13 12 11 11 11 11 10 10 10 11 12 11 12 13 14 14 15 16 16 17 17 16 15 14 14 14 14 14 15 15 15 15
8 10 9 6 4 2 2 1 2 3 3 2 3 1 2 3 3 4 8 13 9 6 7 8 3 0 3 5 4 4 6 4 5 6 9 12 15 15 15 21 24 27 27 27 25 24 22 21 20 19 16 13 12 12 13 13 13 14 15 14 13 13 13 13 14 13 13 11 11 11 10 9 9 10 11 12 12 12 12 13 13 14 15 15 16 16 15 14 14 15 16 16 16 16 16 17 17
10 10 7 4 3 2 2 2 3 3 2 4 4 3 0 3 4 6 9 9 3 1 3 8 8 4 3 3 4 6 7 5 5 7 11 14 16 15 15 21 25 26 26 26 25 24 22 20 20 19 17 14 12 12 12 12 12 13 13 13 12 12 12 12 13 13 13 11 11 11 10 9 9 9 10 11 12 12 11 12 13 14 14 14 14 15 15 14 15 16 17 17 17 17 17 18 19
11 8 4 3 1 1 1 1 2 2 1 4 5 8 8 6 5 7 7 4 3 1 3 8 10 5 3 4 3 5 5 5 5 6 11 15 17 16 16 21 24 26 26 25 24 23 22 20 20 19 17 14 12 12 12 11 11 11 11 12 11 11 11 11 12 12 12 11 10 10 10 9 9 9 9 11 13 11 11 12 13 14 14 14 14 14 14 14 15 17 18 17 17 17 17 18 20
10 6 4 2 1 0 1 1 2 3 3 5 7 11 13 11 8 9 8 5 5 4 6 10 7 3 5 5 3 5 4 4 4 5 11 15 17 17 17 21 24 25 25 24 24 23 21 20 20 19 17 15 13 12 12 11 10 10 10 11 11 11 10 10 11 11 11 11 10 10 10 9 9 9 9 11 13 11 10 11 12 14 14 14 13 12 13 14 15 18 18 18 17 16 17 18 20
8 4 3 1 2 2 3 1 1 2 5 6 9 14 14 12 10 11 10 6 4 4 8 10 4 3 7 4 3 5 4 4 5 8 13 16 17 18 18 21 22 24 24 24 23 22 21 20 20 19 18 15 13 12 12 11 10 10 10 11 11 10 10 10 10 9 10 10 10 9 9 9 9 9 10 11 12 11 10 10 12 14 14 13 12 11 11 12 14 17 18 17 16 16 16 18 20
5 3 3 1 2 3 3 3 4 4 5 5 9 13 11 10 9 9 10 5 3 3 9 10 3 6 8 3 3 6 6 5 7 11 14 16 18 18 18 20 21 22 23 24 23 22 21 21 20 19 17 15 13 12 12 11 11 11 10 10 10 10 10 9 9 8 8 9 9 9 8 9 9 10 10 11 11 11 11 10 11 13 13 13 12 11 10 10 12 15 18 17 16 16 16 17 19
3 2 3 2 2 2 1 2 4 5 6 5 6 5 7 6 5 5 8 5 4 5 8 7 5 8 6 3 4 7 9 8 10 13 15 16 18 19 18 19 21 21 21 22 22 21 21 21 20 19 17 15 14 13 12 12 12 11 10 10 10 10 10 9 8 8 7 7 8 7 8 9 10 11 11 11 11 11 12 11 11 12 12 12 12 11 9 8 9 12 16 16 16 15 16 17 18
4 2 3 2 1 1 1 1 3 4 4 2 2 7 11 5 6 6 5 5 6 6 6 6 6 8 4 3 5 7 10 11 11 13 16 17 17 18 17 18 20 20 20 22 21 21 21 21 20 20 18 16 15 14 13 13 13 12 11 10 9 9 9 9 8 7 7 6 6 7 7 8 9 11 11 10 11 12 12 11 11 11 12 12 11 11 10 8 7 9 13 15 14 14 15 17 17
5 4 4 1 1 1 2 2 2 3 2 0 2 12 12 3 5 6 7 6 6 4 5 7 7 6 3 4 4 9 13 13 13 13 16 15 15 17 17 18 19 20 19 20 21 20 21 21 20 20 18 17 16 15 14 14 13 12 11 9 9 8 8 8 7 7 6 5 6 6 6 7 7 9 10 10 12 12 11 11 11 11 11 12 12 11 10 9 7 7 10 12 13 13 14 15 16
7 4 2 1 1 1 2 2 1 2 1 0 3 14 11 3 4 4 6 5 5 4 7 8 8 4 3 4 5 14 17 15 15 14 16 14 14 15 15 17 17 18 18 17 19 18 19 19 20 20 18 18 16 16 15 14 13 12 11 10 8 8 8 7 7 6 6 5 5 6 6 5 5 6 8 10 11 13 12 11 11 12 12 11 12 11 11 10 8 7 7 9 10 11 12 12 14
9 4 1 1 2 2 3 3 0 1 0 2 5 15 9 3 4 2 2 4 7 7 8 6 6 3 3 4 4 15 18 17 17 16 16 15 15 15 14 15 15 16 16 17 16 16 17 18 19 19 18 18 17 16 16 15 14 13 11 10 9 9 9 8 7 7 6 6 5 5 5 5 5 5 7 8 10 11 12 11 11 12 13 12 12 12 11 11 10 8 6 7 8 9 10 11 12
9 3 2 2 2 3 4 5 3 1 2 2 6 15 7 2 3 2 2 8 10 9 7 5 7 2 3 4 4 13 18 18 19 18 17 16 15 15 15 15 15 15 16 17 16 16 16 16 19 18 18 18 18 17 16 15 14 14 13 12 11 10 10 9 9 9 8 7 6 6 5 6 6 7 7 7 8 10 11 11 12 13 13 13 13 13 13 12 11 10 7 6 7 8 9 10 11
7 2 3 3 3 4 4 6 3 0 3 4 9 14 7 2 3 5 5 6 9 8 5 5 8 3 2 3 4 14 18 19 20 19 18 16 15 15 16 16 16 16 16 17 16 16 16 16 18 19 19 19 19 18 17 16 15 15 14 14 13 12 12 12 11 11 10 9 9 8 7 7 8 9 8 8 9 10 11 11 12 13 14 15 15 15 14 14 14 12 10 7 6 7 7 8 9
5 1 3 5 4 3 3 4 2 2 4 7 11 13 8 3 3 4 2 3 5 5 4 5 6 3 3 4 8 17 20 20 20 19 18 16 15 17 18 17 17 18 18 17 15 16 16 16 17 18 20 19 19 18 17 17 16 16 16 16 16 15 14 14 13 13 11 11 10 9 8 9 9 10 10 10 10 11 12 12 12 13 15 17 18 17 17 17 16 14 12 9 7 6 7 7 7
5 2 4 5 4 3 4 5 6 8 8 8 9 12 10 5 1 3 1 4 3 3 4 4 6 7 7 7 12 19 21 20 20 19 17 16 15 16 17 18 18 18 18 17 15 15 16 17 17 18 19 18 19 19 19 18 17 17 17 17 17 17 17 16 15 14 13 12 11 10 10 10 10 9 10 10 11 11 12 12 11 12 14 17 19 20 20 19 18 16 14 11 8 6 6 6 7
4 5 5 3 2 4 6 7 9 10 8 5 7 11 9 8 5 5 5 5 3 5 6 5 6 11 11 12 16 21 22 21 20 18 17 15 15 15 15 16 17 17 19 17 16 16 16 17 18 18 18 18 19 18 18 17 17 17 17 18 19 19 19 18 16 14 13 13 12 12 11 11 11 10 9 10 11 11 11 12 12 12 14 16 20 22 22 21 19 17 15 13 11 8 6 5 5
4 4 5 5 3 3 6 6 7 6 4 3 6 9 7 9 8 6 9 3 1 3 7 6 4 9 12 14 19 22 22 21 20 19 17 16 16 16 17 17 17 18 20 19 18 17 17 17 17 17 17 18 18 18 18 17 17 18 19 20 21 20 19 18 17 15 15 14 13 12 11 12 11 9 10 11 10 10 11 12 12 13 14 16 19 23 24 23 21 19 17 15 12 10 7 5 5
5 3 4 10 10 7 8 8 8 7 5 4 5 6 7 7 7 6 8 3 3 0 5 7 4 8 11 12 20 22 22 22 20 18 17 17 18 18 19 19 19 20 20 20 19 18 17 16 16 16 17 17 18 18 18 18 19 20 20 21 20 20 18 18 17 16 16 15 13 12 13 13 11 9 9 10 9 9 10 11 13 14 15 16 19 23 24 24 23 21 18 16 13 11 9 6 5
6 4 3 9 12 12 13 12 13 14 11 8 8 7 5 4 3 3 7 5 5 1 4 6 5 9 10 12 19 21 20 19 17 17 17 18 18 17 17 16 17 18 18 19 19 18 17 16 16 16 17 18 18 18 19 20 20 20 20 20 20 19 19 19 18 17 15 14 14 14 15 14 12 10 9 8 8 8 9 11 13 15 17 18 19 22 24 25 23 22 19 17 14 13 10 8 6
7 7 4 6 10 11 13 15 16 16 12 10 8 6 3 6 5 2 4 6 4 1 5 6 6 9 10 13 17 18 17 16 15 15 16 18 18 16 15 14 13 14 15 17 18 18 18 17 17 17 17 18 19 20 20 20 20 19 20 20 19 19 19 19 18 17 15 14 14 15 16 14 13 11 9 9 8 8 8 10 12 14 17 20 20 21 23 25 24 22 20 18 16 14 11 9 8
9 11 6 6 8 8 11 14 15 13 10 7 5 3 2 4 5 3 4 4 1 5 6 6 7 9 11 13 15 15 15 14 14 15 15 19 19 16 14 13 13 12 13 14 16 18 18 18 18 18 18 19 20 20 20 20 20 19 20 20 19 20 19 19 18 17 15 15 15 15 16 15 13 11 10 10 9 9 9 10 12 14 16 20 21 21 22 24 24 23 21 19 17 15 13 11 9
8 13 11 11 10 9 11 12 15 14 11 10 7 2 3 4 4 2 3 4 5 8 8 8 9 10 11 13 13 12 12 12 13 14 15 18 19 18 16 14 14 13 12 13 16 18 19 20 19 19 19 19 20 20 21 20 20 20 20 20 20 20 19 19 18 17 16 16 15 16 17 15 13 11 12 11 10 10 10 11 14 15 15 18 20 20 21 22 24 23 22 21 19 16 14 12 10
7 9 8 10 10 10 12 13 14 10 8 8 6 3 2 4 3 2 6 8 7 8 9 11 11 11 12 13 12 10 10 11 12 13 15 18 20 20 18 16 13 13 13 13 16 18 19 20 19 19 19 19 20 21 21 20 20 20 20 21 20 20 18 18 18 18 17 17 16 17 18 16 14 13 13 12 11 11 11 11 13 14 14 16 19 21 21 21 22 23 23 21 20 18 15 14 12
6 7 5 4 4 6 9 8 7 4 3 3 5 4 1 3 2 5 9 10 8 7 9 12 13 13 13 13 12 10 10 10 11 12 13 16 19 19 18 17 14 13 13 12 15 17 19 20 20 19 19 20 20 21 21 20 20 20 20 20 20 20 18 17 18 17 17 18 18 18 18 16 15 15 14 12 12 12 12 11 12 12 13 16 18 20 22 21 21 21 22 21 20 19 17 15 13
5 5 3 2 2 4 4 2 2 4 3 2 6 3 2 2 1 6 11 11 10 8 9 12 13 14 15 13 11 10 10 10 10 11 12 14 15 17 18 17 15 14 13 13 15 17 18 19 20 20 20 20 20 20 20 20 20 20 20 20 20 20 18 17 17 16 17 19 19 20 20 17 16 15 14 13 12 12 13 12 12 13 13 15 17 20 22 22 21 21 21 21 21 19 18 16 14
3 4 2 1 3 3 1 1 3 4 1 4 7 3 2 2 2 4 11 11 13 12 10 13 14 15 16 14 11 9 9 9 9 11 13 15 13 15 17 16 16 15 15 15 15 16 17 18 19 20 20 20 20 20 20 20 20 20 20 20 20 20 19 18 17 17 18 18 20 21 19 17 16 15 15 14 13 13 13 13 13 14 13 14 15 18 21 22 22 22 21 21 20 19 19 17 15
1 4 3 1 2 2 1 1 3 2 1 3 5 3 1 3 4 1 10 13 11 12 11 13 15 16 17 16 13 9 8 8 10 12 14 15 14 14 16 16 16 16 15 15 15 15 16 17 18 19 19 19 19 19 19 19 19 20 20 20 20 20 19 18 18 17 17 17 20 20 16 15 15 15 15 14 15 14 13 13 14 14 13 12 12 14 19 22 23 23 22 21 20 19 19 17 16
1 3 3 3 4 2 1 1 1 1 2 2 2 2 2 1 5 3 10 14 8 8 9 11 13 13 14 16 14 9 8 8 11 14 15 14 15 14 14 15 15 15 15 15 15 15 15 16 17 18 19 18 18 18 18 18 18 18 18 18 20 20 19 19 19 19 18 19 20 18 15 16 15 15 15 15 16 14 12 13 13 14 14 13 12 12 15 19 22 23 22 21 20 19 18 17 15
2 1 2 2 3 3 1 2 1 2 2 3 0 1 2 0 6 7 6 10 7 7 7 10 11 10 10 12 12 7 7 9 11 13 14 13 14 13 12 12 13 14 14 15 15 15 15 16 17 18 18 17 17 16 17 17 16 16 17 17 18 20 20 19 19 19 18 19 20 19 18 17 16 16 15 15 15 13 12 13 13 15 15 14 13 12 13 16 19 22 22 21 20 19 18 17 15
5 4 3 2 2 2 1 1 0 2 1 4 4 4 3 2 7 8 5 0 4 4 3 7 10 9 9 10 8 4 6 9 10 10 12 13 13 13 12 11 12 13 14 16 16 16 16 17 17 18 17 16 15 16 16 16 16 17 16 16 18 19 20 20 20 19 19 20 21 21 21 19 18 16 14 14 13 11 13 14 13 15 17 15 14 14 14 15 16 18 20 21 20 20 18 16 15
6 5 4 4 4 2 1 1 1 1 1 4 4 2 2 6 7 9 10 4 3 3 2 4 8 9 9 8 7 5 7 8 7 9 12 12 13 13 13 13 13 14 15 16 16 17 17 18 17 16 16 14 14 15 16 16 17 19 18 17 18 20 20 21 20 20 20 21 21 22 22 20 19 16 14 13 11 12 15 14 13 14 17 18 17 15 15 15 15 16 17 17 17 17 17 15 14
6 5 4 4 4 3 1 1 2 1 1 3 4 5 7 7 7 10 11 5 3 1 2 2 6 8 8 9 9 8 9 9 7 10 12 13 13 14 14 14 15 15 15 16 17 16 16 17 16 15 14 12 11 13 14 16 17 18 20 19 19 20 20 21 20 19 20 21 20 21 20 20 18 14 13 13 12 14 16 15 15 14 15 18 18 17 16 15 15 15 15 16 16 16 16 15 14
5 5 4 3 3 2 2 0 2 1 0 2 6 9 8 7 8 11 11 8 8 5 2 2 4 8 10 11 11 10 11 11 10 10 13 14 13 13 14 14 15 15 13 12 11 9 9 9 10 12 12 11 11 12 14 16 16 17 18 19 20 21 21 21 19 17 18 19 19 18 17 19 17 14 14 14 11 13 15 16 17 16 16 17 17 18 18 17 17 17 17 17 16 16 15 15 15
3 3 3 3 3 1 1 1 2 1 1 2 7 10 7 5 5 10 12 9 8 8 4 2 3 6 8 10 11 12 12 13 13 11 11 13 13 14 13 11 8 6 8 12 12 12 16 13 9 10 11 11 12 13 14 14 13 12 11 13 16 17 19 20 17 17 19 19 17 15 16 17 15 13 16 14 10 12 15 17 17 17 17 16 17 18 19 19 19 17 17 17 16 15 14 15 15
2 3 3 3 2 2 3 2 2 2 3 3 9 10 6 4 3 6 11 10 9 9 9 8 5 3 4 6 8 10 12 13 14 11 11 13 11 9 7 6 9 8 10 17 14 11 14 12 10 11 11 11 12 12 11 9 7 7 8 12 15 15 17 17 15 15 17 18 15 14 16 16 13 13 16 14 10 12 16 17 18 18 18 17 17 19 19 20 19 18 18 18 17 15 15 16 15
1 3 4 3 3 3 2 2 1 1 3 2 8 7 4 4 3 5 8 9 10 10 11 13 10 6 2 2 4 6 8 11 12 11 12 12 5 4 3 4 7 6 8 13 11 7 11 12 11 12 13 12 10 9 7 5 7 10 11 14 15 14 15 16 13 13 15 16 16 15 15 15 13 13 16 14 11 12 16 18 18 19 19 18 18 19 19 20 19 19 19 18 16 15 15 16 17
2 4 6 5 5 4 1 2 1 2 3 2 2 3 3 3 4 6 7 7 10 10 11 12 11 10 8 5 3 2 4 7 8 8 8 4 4 3 2 7 9 5 8 11 10 6 7 10 10 12 14 12 8 7 5 3 6 9 11 11 11 11 12 13 13 12 14 15 14 14 14 14 14 14 15 15 14 14 16 18 19 20 21 20 19 19 19 20 20 20 19 18 16 14 14 15 17
3 4 6 5 4 4 3 3 2 1 3 2 2 1 3 1 3 7 6 6 9 9 10 11 12 12 11 10 9 8 8 8 6 6 6 5 4 1 3 4 5 4 6 5 7 7 1 5 9 12 14 12 8 7 6 5 6 7 8 8 9 8 8 10 10 10 13 13 12 13 14 13 14 16 15 15 15 14 16 18 19 20 21 21 20 19 19 20 20 20 19 18 16 14 15 15 14
2 3 8 8 6 6 6 4 3 1 1 2 1 1 3 3 3 6 4 5 9 9 9 10 11 12 12 12 12 12 13 13 12 11 9 6 5 3 1 2 5 5 2 3 7 8 8 9 11 12 11 10 9 8 8 8 8 8 7 6 7 9 9 10 10 10 12 13 11 11 13 13 15 17 16 15 15 15 17 19 19 20 19 19 20 20 20 20 20 20 19 19 16 14 15 15 14
2 3 6 7 6 5 4 4 3 0 1 3 2 1 2 3 1 4 2 5 9 8 8 9 10 11 11 12 13 14 16 17 18 17 15 13 10 8 6 4 4 4 2 6 9 12 12 11 10 10 10 10 10 10 9 9 9 9 9 9 10 11 11 11 12 12 14 14 13 12 13 14 15 17 16 15 15 16 18 20 20 19 18 19 21 20 20 21 21 20 19 18 16 15 15 15 15
2 6 5 4 3 2 1 2 3 2 3 4 3 2 2 3 0 2 3 5 6 6 7 9 11 12 12 13 15 15 16 18 20 19 19 18 14 11 8 6 2 2 0 7 11 11 10 10 11 12 11 9 10 11 11 11 12 11 12 12 11 11 12 14 14 14 15 16 15 14 14 14 15 16 15 13 14 16 18 19 20 19 18 20 22 21 20 21 21 19 18 18 16 15 16 15 15
7 9 7 5 3 2 2 1 1 3 4 2 0 3 1 3 1 1 2 3 4 4 5 7 10 13 14 16 17 17 18 19 21 21 21 20 17 13 9 6 3 4 4 1 5 6 5 6 9 11 11 11 12 13 13 14 15 15 14 13 12 12 12 14 17 18 18 17 17 16 16 16 16 15 15 12 12 15 17 18 19 19 19 21 22 22 21 20 19 19 18 19 18 17 17 16 16
6 5 5 5 3 1 2 1 1 4 4 1 1 3 1 2 2 1 1 3 4 4 4 6 9 13 15 17 18 19 20 21 22 23 22 21 20 17 12 8 4 4 5 4 2 3 5 7 10 12 12 13 14 14 15 16 17 17 17 15 13 12 12 13 16 19 21 21 19 19 18 17 16 15 15 13 13 15 17 18 19 20 21 22 22 23 21 20 19 19 19 20 19 19 18 17 17
4 3 6 7 4 3 3 3 3 4 2 2 1 2 1 2 2 3 4 4 4 3 6 8 11 14 16 17 18 19 21 23 23 23 22 22 20 19 17 13 9 7 7 6 6 6 7 9 10 12 13 13 14 15 16 15 17 17 18 17 15 13 14 14 15 18 21 21 19 19 20 18 17 15 14 12 12 16 17 18 20 21 22 22 22 22 21 19 19 20 20 20 20 19 19 18 18
6 5 8 8 5 6 5 3 2 2 2 2 2 2 2 2 1 3 4 4 4 6 10 13 14 15 16 16 17 18 20 22 22 22 22 21 18 16 15 14 12 10 9 8 9 10 10 10 10 11 12 12 13 14 15 14 15 16 17 18 17 16 17 18 18 19 20 19 18 18 18 17 17 15 14 12 12 15 18 19 20 21 21 21 21 21 21 20 19 20 20 20 19 19 18 19 18
6 3 4 5 3 4 4 3 3 3 3 2 1 0 3 4 3 3 3 2 5 9 12 14 15 15 15 16 17 19 20 20 20 20 20 19 17 16 13 12 11 11 11 10 11 11 11 11 11 12 12 13 13 13 13 13 14 14 15 15 16 17 18 18 18 19 18 17 17 17 16 15 16 16 14 13 14 15 19 20 20 20 21 21 20 20 21 20 19 20 20 20 19 18 19 19 18
4 1 1 3 3 3 3 1 1 2 3 2 2 1 2 2 3 4 4 4 8 11 12 14 15 14 15 16 17 18 19 19 18 18 17 16 15 14 13 11 10 10 11 12 12 11 10 10 10 11 12 13 13 13 13 12 12 12 12 13 15 16 17 18 18 18 18 17 17 18 17 15 15 16 14 14 15 17 18 19 20 20 20 20 19 20 21 20 20 20 20 20 19 19 20 20 19
3 3 4 2 1 4 4 2 2 1 3 2 2 2 3 3 4 6 7 7 10 10 11 13 13 13 14 14 14 16 17 17 16 15 14 13 13 12 11 10 9 9 10 11 11 11 11 11 11 11 12 12 12 12 13 13 11 10 10 12 14 15 16 17 17 17 17 17 17 19 18 15 15 16 15 14 15 17 17 18 20 20 19 19 19 19 20 20 19 19 19 19 19 20 20 20 20
5 6 7 4 2 2 2 3 2 1 3 2 1 2 5 4 4 7 10 10 10 9 10 11 11 12 12 12 12 14 15 15 15 14 13 13 12 11 10 9 8 7 8 9 10 10 10 11 13 14 14 14 13 14 14 14 13 12 12 12 14 16 16 16 16 17 17 17 17 18 17 15 15 15 16 16 16 17 18 18 20 20 19 19 19 19 20 19 18 19 19 19 19 19 19 19 19
2 5 7 3 2 3 2 2 3 3 3 2 1 0 3 5 4 8 12 11 10 10 9 9 9 10 9 9 11 13 14 15 14 14 14 13 12 11 11 10 9 9 8 9 10 10 10 11 13 14 15 15 15 15 15 16 15 15 15 14 14 17 19 18 17 17 18 19 19 18 17 15 14 15 16 17 17 17 18 19 20 20 19 19 19 19 19 18 18 19 18 19 20 20 20 19 18
3 4 5 0 1 3 2 2 2 4 4 2 3 1 4 4 4 9 13 11 10 10 9 8 8 9 9 9 10 12 15 15 14 13 14 14 13 13 13 14 14 13 11 10 9 9 10 11 12 13 14 14 14 14 15 15 15 15 17 16 15 17 19 20 18 16 18 19 18 19 19 17 16 16 17 18 18 17 18 19 20 19 18 19 19 19 18 17 18 18 18 21 22 21 20 19 17
4 6 5 2 1 1 2 2 1 2 4 4 3 2 4 1 2 8 13 11 10 11 10 9 8 9 9 9 10 11 13 13 13 12 12 13 13 14 14 15 15 14 13 12 11 10 10 11 11 12 12 13 13 14 14 14 14 14 16 17 16 16 16 16 18 18 18 17 16 18 20 20 18 18 17 17 18 18 19 19 20 19 18 18 18 19 18 17 17 18 20 20 19 18 18 17 16
6 7 6 4 4 4 5 3 1 2 2 3 4 3 3 1 1 6 10 10 10 12 14 12 8 9 9 9 10 10 10 10 10 10 10 11 12 14 14 15 15 15 15 14 13 12 12 11 11 11 11 12 13 14 14 15 15 15 15 15 15 16 14 13 16 19 18 17 15 17 20 20 19 18 17 17 18 18 19 19 20 19 18 17 19 19 19 19 18 19 20 19 17 17 17 16 16
Wind_Direction
226 222 211 197 170 155 131 116 173 55 147 256 215 245 219 206 326 286 282 305 283 352 322 282 252 191 176 141 151 129 90 109 71 53 94 100 137 144 155 162 166 170 168 168 170 168 168 173 175 176 175 175 175 178 179 177 173 171 174 174 172 171 162 153 148 145 143 141 134 129 125 122 117 109 103 99 99 102 105 107 112 118 124 129 128 127 127 124 121 117 114 113 112 109 105 102 98
202 205 191 175 159 160 150 95 243 64 214 253 209 207 352 115 232 251 292 335 309 340 36 45 87 147 126 115 116 121 94 43 51 81 99 125 135 137 150 161 167 170 168 168 169 166 167 172 176 177 176 176 177 178 178 177 172 169 171 169 170 167 160 153 149 148 147 143 136 133 131 128 121 113 108 104 102 104 108 108 109 115 121 128 130 130 129 128 126 122 120 117 111 104 99 97 97
198 190 174 161 144 132 127 89 237 172 221 242 239 197 151 174 192 223 273 324 318 284 322 8 13 17 320 141 101 85 72 40 84 105 115 129 140 143 147 157 167 169 169 168 167 167 168 172 176 178 177 176 177 179 178 176 172 170 169 169 169 165 160 154 150 151 149 145 139 138 137 133 124 118 114 111 109 110 112 110 109 113 118 125 130 131 131 131 128 124 120 114 106 101 101 101 101
192 179 166 150 132 109 120 182 199 182 221 228 282 192 197 203 186 226 247 320 325 273 260 330 338 323 328 130 59 54 70 58 88 111 125 136 150 149 147 156 166 169 169 168 167 169 170 173 176 177 178 176 176 177 177 176 173 171 170 170 168 164 160 155 152 152 152 149 144 143 142 137 128 120 119 118 115 116 117 115 113 113 118 124 128 130 131 131 127 120 113 107 103 104 105 103 101
184 173 162 146 140 121 123 129 124 200 223 174 316 117 184 208 184 265 285 318 322 283 247 244 349 9 36 43 35 47 65 70 94 110 131 140 153 150 149 159 167 169 169 169 168 171 173 175 176 178 178 176 175 173 174 175 174 173 172 171 167 164 161 157 155 155 156 154 150 148 146 140 133 123 122 125 121 120 122 121 116 114 118 123 125 126 127 127 121 112 105 103 104 107 106 102 99
176 165 155 139 123 119 147 203 187 222 232 177 262 348 112 206 276 281 300 316 317 304 234 206 244 139 76 45 44 74 76 84 104 122 142 143 153 156 154 160 168 170 171 171 170 173 175 176 177 178 177 175 174 168 170 173 173 175 174 172 168 166 164 161 159 160 161 158 155 151 149 145 138 127 124 131 129 124 124 124 121 118 120 123 124 126 126 123 116 109 104 105 108 109 106 101 97
169 160 148 133 92 91 206 240 213 240 228 186 244 293 51 216 262 284 304 317 308 31 181 197 200 165 109 104 91 101 85 88 121 134 154 152 154 159 159 161 167 171 172 172 172 176 176 176 178 178 178 175 171 165 167 170 170 173 175 174 172 170 168 166 164 164 164 161 158 154 154 151 144 134 127 134 135 128 125 127 127 126 126 126 129 129 128 122 115 110 109 110 110 107 104 100 96
166 156 133 144 101 36 224 242 231 243 208 202 256 272 274 267 261 279 287 283 272 271 172 172 176 166 129 135 108 133 101 90 131 136 158 160 156 159 163 164 168 172 173 173 174 177 176 176 178 179 179 175 168 164 164 165 164 167 172 176 176 173 171 170 169 168 167 164 162 159 159 158 151 143 134 135 138 133 129 131 131 131 131 132 133 132 129 123 117 113 113 112 109 106 103 100 95
163 150 124 147 180 220 216 249 252 229 245 255 264 256 262 272 260 259 260 244 256 258 191 168 170 181 138 128 94 145 131 99 129 133 156 163 160 161 166 168 171 174 173 174 177 178 176 176 179 180 179 174 168 164 161 159 157 160 166 174 176 173 172 172 173 170 169 168 167 163 163 165 158 151 144 139 141 140 136 135 133 133 135 137 138 136 133 125 120 117 116 113 108 105 102 98 93
157 140 130 132 178 226 228 242 252 230 259 259 268 266 268 268 252 246 249 250 245 218 182 172 169 135 131 123 106 149 148 121 134 137 151 162 165 167 170 173 175 177 176 176 178 177 175 175 178 180 179 174 169 164 160 158 154 156 160 168 172 172 173 173 173 172 174 175 173 170 169 170 164 157 150 145 146 147 144 140 137 138 139 141 144 142 138 129 123 120 118 115 110 106 100 96 92
152 120 138 156 197 228 229 246 250 263 274 274 281 274 280 270 247 242 240 242 235 188 176 178 162 127 122 104 139 161 152 140 150 146 152 161 168 172 173 176 177 182 182 180 179 177 175 175 177 179 178 173 170 165 160 159 154 152 152 158 163 167 169 167 168 170 177 180 178 177 174 176 173 165 159 154 153 153 153 148 142 142 143 145 149 148 144 137 127 123 120 116 112 107 100 95 91
165 121 151 199 211 226 224 259 262 284 282 284 296 288 319 283 222 230 229 216 186 167 173 181 156 139 122 114 165 169 155 152 156 153 158 160 168 176 179 179 179 184 187 185 181 178 177 176 176 176 176 173 169 165 162 160 156 153 154 157 159 159 159 158 159 163 172 174 172 176 177 182 180 173 171 162 153 156 159 156 150 147 149 150 153 154 151 150 139 126 121 117 112 106 100 94 90
175 141 167 193 199 192 174 256 273 296 292 284 288 319 328 277 230 240 200 164 162 153 169 182 152 141 115 123 168 175 163 158 157 157 160 160 170 178 184 184 181 185 188 188 183 180 181 179 178 175 173 172 168 165 164 163 161 160 161 162 159 155 154 154 157 164 170 168 164 170 177 184 186 182 180 167 153 158 164 162 158 153 154 155 156 160 162 165 159 137 124 118 113 105 99 93 90
174 165 186 183 159 159 180 249 278 261 290 317 296 336 340 302 283 238 164 139 158 139 148 173 165 148 126 136 178 186 170 162 159 157 157 157 168 176 184 184 182 185 187 186 183 181 182 180 178 175 172 172 168 165 165 166 167 166 165 164 161 158 157 159 165 171 174 174 170 171 177 180 188 187 185 178 159 157 167 168 164 162 160 161 163 167 173 176 176 161 131 122 116 107 100 96 93
180 164 175 154 157 180 208 223 311 240 284 165 320 349 352 356 354 181 159 131 158 147 135 154 168 154 160 169 194 187 169 161 162 155 152 151 160 168 175 176 177 183 181 178 179 180 180 180 179 175 173 172 169 168 168 169 171 171 171 172 172 172 172 174 175 179 182 184 183 178 180 181 185 185 187 191 171 160 169 174 171 170 168 168 171 173 181 186 188 187 150 130 123 110 104 102 98
180 147 134 194 183 199 198 185 163 224 249 218 324 355 360 19 39 157 193 151 144 143 142 145 162 130 146 154 169 179 165 158 161 153 150 149 154 158 162 165 169 176 176 172 173 177 180 181 181 177 173 174 173 173 174 173 175 176 180 183 186 189 188 190 189 191 196 197 198 186 186 191 196 194 191 197 183 168 171 176 175 174 174 175 177 179 185 193 195 198 182 150 135 122 112 107 103
171 149 178 195 189 204 195 186 181 187 314 271 333 355 354 348 31 93 127 148 135 135 143 145 166 149 144 150 146 169 163 161 163 156 154 152 153 156 159 165 168 171 174 174 173 175 181 184 182 178 175 177 178 178 179 179 181 184 189 194 197 201 201 202 201 202 203 203 207 205 202 201 204 206 202 198 189 179 175 179 179 177 180 180 182 185 189 196 200 202 201 182 154 138 126 116 109
168 166 196 199 198 207 191 190 187 197 324 320 331 342 336 324 81 111 100 120 120 127 130 144 174 202 177 168 152 164 166 166 166 162 161 158 156 158 162 167 169 169 172 174 177 178 182 185 183 182 181 182 183 184 186 187 190 194 199 204 207 210 209 209 208 208 207 204 211 217 213 209 208 207 207 207 198 186 182 183 183 181 183 184 186 188 192 198 202 204 206 202 176 150 135 122 115
176 130 200 212 198 207 203 200 209 241 306 323 321 330 330 315 133 138 84 116 130 134 126 142 177 197 175 165 155 163 169 171 171 168 166 163 162 162 164 167 169 169 170 173 177 182 186 185 183 186 189 188 189 192 194 196 198 202 207 210 212 214 214 215 214 212 211 211 217 217 208 205 207 206 209 212 206 193 187 186 187 188 185 183 187 189 194 199 202 206 208 209 195 164 145 130 123
193 178 214 223 206 248 248 235 249 258 287 310 316 329 334 327 234 220 184 154 189 195 159 154 190 198 177 162 161 166 173 175 173 172 168 163 163 165 165 167 170 170 170 173 176 183 190 188 186 190 193 194 195 198 200 202 204 207 212 215 217 217 218 219 218 216 213 214 217 213 207 202 199 201 205 209 208 198 193 193 193 196 193 186 187 190 194 199 202 206 209 212 207 187 163 145 134
180 196 226 216 176 247 246 246 262 269 278 285 315 327 337 349 323 241 183 159 196 230 208 187 209 208 187 169 169 171 176 178 174 171 167 161 161 164 167 167 169 170 170 174 179 185 191 190 191 194 196 198 200 203 205 207 208 211 214 218 219 218 218 218 216 215 214 214 214 211 209 203 197 194 194 204 208 200 196 197 195 197 197 189 187 190 192 197 201 205 210 213 212 205 187 163 148
171 202 239 227 192 245 254 265 278 280 270 279 313 313 318 342 329 228 191 178 113 231 220 205 216 205 189 175 173 174 178 181 175 170 165 162 165 168 172 172 172 174 174 178 184 189 194 193 195 198 199 200 203 206 208 210 210 213 215 217 218 216 216 217 216 214 213 214 215 214 210 203 198 190 192 204 208 202 197 195 196 196 195 191 188 190 192 195 200 204 209 213 214 212 205 188 167
206 206 234 236 230 242 263 277 281 278 267 277 289 284 296 323 324 237 212 278 353 311 201 194 191 188 185 173 173 177 182 183 175 170 168 169 172 173 174 176 178 180 181 184 189 194 195 194 198 201 201 203 204 206 208 210 211 214 217 219 220 219 217 217 218 215 213 215 214 214 211 204 198 192 194 203 202 199 200 197 196 195 193 192 191 191 192 195 200 203 208 212 214 214 213 206 191
221 222 221 239 237 241 261 276 281 282 276 279 271 264 278 275 297 235 221 284 313 309 166 175 174 182 184 172 174 180 182 180 173 169 172 176 178 176 175 177 182 184 189 194 196 199 199 199 200 201 203 205 206 208 209 211 213 216 220 224 224 223 222 221 220 216 214 215 212 212 210 203 199 198 195 203 203 200 205 202 197 193 190 191 191 193 194 195 199 203 207 211 214 215 215 215 207
217 225 225 242 246 251 266 279 283 287 289 287 263 240 233 225 224 190 222 272 294 185 164 172 176 182 184 177 176 180 179 173 169 169 173 183 184 177 175 178 185 188 195 202 203 203 203 203 203 203 205 207 209 210 212 214 215 218 221 225 226 226 226 225 223 218 215 215 214 213 210 204 202 202 201 209 212 208 209 205 202 197 191 189 190 193 195 197 200 204 207 210 213 214 215 218 218
206 214 223 237 249 264 274 280 284 292 300 282 235 185 130 206 205 179 225 248 172 147 161 171 180 183 184 182 180 180 176 167 169 170 175 189 189 182 179 182 190 194 197 202 202 200 202 204 205 207 207 209 213 215 217 218 218 220 223 225 228 229 230 230 227 221 216 215 215 214 213 209 206 207 213 218 215 214 213 206 207 204 194 190 190 192 195 199 203 205 208 210 213 214 215 219 221
191 205 221 238 251 271 275 276 281 289 291 266 233 155 103 176 194 176 200 191 150 150 159 166 174 183 187 187 184 178 170 166 171 171 178 191 192 189 188 188 193 197 196 197 198 198 200 203 206 209 210 212 215 219 220 221 222 223 225 228 231 232 234 234 230 223 218 216 216 215 214 213 212 214 219 221 217 217 215 208 207 205 197 192 193 193 194 198 203 206 208 210 213 216 218 219 222
191 194 212 241 253 268 264 266 279 283 285 267 220 162 129 179 186 133 163 164 158 164 164 163 172 183 190 191 188 178 168 170 176 177 183 192 196 195 194 195 194 193 195 195 199 202 200 205 210 211 214 217 218 221 224 225 227 228 229 232 235 236 237 235 231 227 222 218 217 217 214 212 215 217 217 220 219 216 216 209 208 208 201 197 198 196 195 197 201 205 207 209 212 216 219 222 224
186 184 201 236 242 257 244 251 273 248 269 275 176 170 171 188 166 136 158 160 162 174 166 164 175 185 190 194 191 185 175 173 180 183 191 199 200 198 196 199 198 195 196 198 203 207 206 209 214 216 219 222 223 224 228 230 231 233 235 237 239 241 242 240 235 232 227 222 221 218 213 213 218 218 218 221 218 213 214 211 210 213 207 203 201 198 199 199 200 204 205 207 211 215 219 224 229
167 172 223 240 215 243 224 241 241 210 271 207 178 205 210 219 231 149 161 163 162 164 168 172 181 188 193 197 190 187 182 176 181 185 201 212 205 198 199 201 202 202 201 202 203 205 209 212 215 220 223 225 227 227 230 232 234 237 239 241 244 245 246 246 242 236 229 225 224 218 211 215 219 218 221 222 218 213 211 211 210 212 210 207 203 200 200 200 202 204 205 206 209 213 218 224 230
159 150 197 239 211 219 123 40 187 190 253 192 199 222 198 241 303 167 171 176 172 167 173 182 187 193 197 200 192 183 183 182 183 188 207 221 212 196 196 199 202 205 205 204 204 205 210 213 215 221 225 228 229 229 232 234 238 241 242 244 247 249 250 250 247 239 230 227 229 220 210 217 221 219 225 222 218 215 211 210 209 210 214 212 207 203 200 200 204 205 207 208 208 210 216 222 228
112 174 176 150 204 221 29 66 192 208 76 174 212 206 200 268 321 253 184 184 182 173 178 189 195 199 199 204 202 181 177 187 192 203 217 223 219 202 194 198 202 205 206 204 206 209 213 215 218 223 227 231 232 234 238 240 242 244 248 249 250 252 252 253 249 239 230 230 233 224 212 219 225 225 228 225 220 215 210 210 206 210 215 211 207 203 201 202 204 206 209 210 210 211 214 220 226
58 211 172 146 194 206 57 106 200 294 136 153 250 184 152 264 342 348 179 182 187 178 184 197 203 207 205 209 209 185 171 193 206 221 229 227 226 219 205 203 207 208 210 212 212 215 219 222 224 227 229 232 234 238 242 243 245 249 254 255 252 252 253 254 249 235 230 233 235 229 221 223 227 231 232 230 228 219 212 214 208 209 212 208 204 201 202 204 206 208 210 213 214 213 215 220 226
151 199 148 140 198 199 172 133 46 352 171 168 208 218 188 281 357 21 146 177 190 188 196 209 213 214 212 217 218 189 170 204 219 229 238 237 237 237 225 214 217 219 218 220 221 221 227 231 232 233 234 235 235 239 245 249 252 256 262 261 256 253 252 254 246 235 234 237 238 234 230 228 227 234 238 237 235 224 218 218 211 211 212 207 205 204 206 208 209 211 212 215 217 216 217 221 225
161 167 156 140 169 190 182 156 60 5 67 151 165 225 232 350 3 22 36 200 203 208 227 227 229 226 222 231 233 200 186 216 224 227 239 247 249 248 241 231 228 228 226 225 226 227 230 233 236 240 241 241 242 245 248 253 256 259 263 262 259 254 251 250 241 235 238 241 242 238 233 232 230 237 249 249 240 228 224 221 213 213 213 211 208 207 210 211 211 212 212 215 217 217 217 217 219
162 163 161 149 153 175 204 199 282 338 108 150 170 197 62 28 6 3 356 347 205 228 279 247 240 237 239 243 248 239 223 227 225 226 238 246 248 247 243 241 239 235 231 227 227 231 235 238 242 247 250 250 251 253 255 258 261 262 262 262 261 258 254 250 242 238 240 243 245 241 235 236 236 238 251 255 242 231 228 221 217 215 214 214 212 210 211 212 210 210 210 210 213 213 212 212 213
131 129 139 133 153 168 180 243 314 277 187 122 107 84 61 37 16 0 355 24 65 296 244 239 230 228 237 241 245 245 238 240 232 229 239 243 245 246 245 245 246 243 238 237 238 242 249 251 253 257 260 266 269 269 268 265 265 264 262 261 260 261 257 249 247 245 244 247 246 242 241 244 244 241 245 247 235 232 230 221 218 217 215 216 217 216 212 211 210 211 211 207 209 209 208 210 207
116 127 130 131 180 172 133 95 312 256 197 94 95 89 70 40 29 15 10 39 40 4 275 209 211 216 222 227 235 239 243 249 244 238 245 249 247 249 255 258 257 257 261 269 272 285 305 291 278 277 274 282 289 283 273 265 264 264 261 258 258 262 259 251 251 251 249 251 249 245 247 250 249 245 247 248 239 236 234 225 219 217 217 220 223 222 215 213 212 213 215 212 211 211 209 211 206
115 130 143 154 176 193 138 66 318 308 47 134 109 93 75 41 35 31 28 39 40 28 36 91 179 211 225 229 233 239 247 253 252 251 250 255 259 267 279 288 295 314 347 2 4 359 356 344 313 292 279 283 290 284 278 272 267 267 269 267 269 273 269 263 257 253 253 254 255 253 252 254 256 257 259 257 252 246 235 226 224 220 220 223 226 224 217 216 214 213 219 220 217 210 205 209 207
119 147 174 169 157 208 175 139 312 11 35 137 120 98 77 54 55 48 40 42 51 53 56 68 98 156 220 233 236 245 255 260 261 261 258 266 280 301 322 12 30 24 12 11 6 344 339 330 294 281 285 290 293 288 286 291 291 291 292 284 283 284 283 282 271 255 254 255 257 258 255 258 263 266 268 264 255 251 237 226 226 226 224 223 225 225 220 219 217 215 220 222 218 211 204 205 207
170 190 192 177 174 223 180 124 228 81 54 131 127 109 76 39 30 42 40 45 53 55 57 58 59 63 85 195 222 242 256 264 267 271 275 283 317 36 45 26 8 355 355 8 12 333 318 315 298 294 300 299 297 295 291 305 311 301 294 287 286 285 284 289 283 264 259 257 256 258 260 267 269 266 271 272 264 252 239 228 228 231 229 224 224 225 223 222 220 218 219 217 215 213 210 207 205
192 217 208 198 186 204 174 108 171 141 125 166 148 130 110 30 26 38 31 44 54 55 60 58 52 49 47 42 22 327 299 286 280 290 305 327 91 103 271 290 303 328 15 32 57 41 323 311 309 302 301 299 299 300 281 274 295 294 298 296 291 287 277 280 284 277 273 270 265 263 267 274 274 270 269 273 271 257 241 231 231 234 228 223 223 223 222 221 220 220 219 216 213 213 214 212 208
195 202 194 196 177 185 186 155 169 175 135 118 305 203 140 109 37 29 21 53 59 58 64 60 55 51 44 39 29 18 14 1 349 358 19 72 109 137 275 294 319 1 25 55 107 106 190 274 282 282 291 297 305 310 288 277 285 291 309 312 302 295 271 262 272 278 278 278 274 269 270 269 268 267 266 269 269 258 245 237 234 233 227 222 223 223 222 219 219 220 219 218 216 212 214 215 217
188 177 174 179 181 195 196 175 183 226 106 104 279 224 137 140 77 23 11 80 67 55 58 56 53 50 46 44 40 39 41 40 43 50 59 71 72 62 69 10 360 354 353 181 180 188 208 236 257 269 294 306 307 310 299 291 287 286 300 299 282 275 258 244 243 244 252 262 269 270 269 267 265 266 265 264 262 250 243 242 237 231 226 222 222 224 223 220 219 219 219 219 217 216 218 216 221
218 163 168 175 180 195 195 182 169 126 229 173 177 217 144 137 60 13 22 88 66 51 52 53 53 51 47 46 45 50 54 57 60 64 66 64 61 59 57 37 352 317 261 207 211 219 229 244 266 287 315 325 317 311 304 297 291 285 282 273 267 268 264 256 248 237 236 247 259 265 267 266 266 267 264 260 252 239 236 238 232 228 226 222 222 224 222 221 221 220 220 218 216 219 221 214 217
158 135 128 118 94 89 134 191 158 130 232 187 161 250 165 131 343 8 53 67 61 53 55 58 58 59 58 53 51 55 58 61 65 66 67 69 71 74 82 92 73 20 121 205 211 222 238 258 281 293 305 314 315 312 307 301 293 283 278 277 284 291 286 275 267 256 249 252 258 262 265 266 268 269 266 262 253 239 231 229 224 222 221 218 219 221 222 223 222 222 223 220 217 221 221 211 210
130 136 123 105 86 74 84 47 129 168 210 178 126 294 230 145 180 336 29 44 56 66 65 64 64 64 63 59 56 58 60 62 66 68 69 72 75 79 96 115 89 38 38 185 208 229 256 274 287 297 302 299 297 295 293 291 288 284 284 285 288 295 292 282 276 271 265 263 264 265 266 267 272 272 266 263 256 241 229 222 221 219 217 215 213 216 222 224 222 221 221 220 219 220 219 211 205
140 152 142 131 121 122 139 109 176 197 188 120 356 292 237 160 151 172 147 73 67 71 69 71 72 68 64 62 61 60 62 64 67 69 69 69 69 66 68 71 53 23 20 20 339 290 299 304 306 313 313 304 298 294 290 288 286 288 291 293 293 293 289 281 277 276 272 269 268 271 272 269 273 273 268 263 251 236 223 216 216 216 214 213 210 212 219 224 224 221 220 220 219 218 216 210 205
184 173 163 167 161 161 179 176 195 206 163 81 312 273 82 70 77 137 139 97 73 64 65 70 75 72 66 62 61 59 61 63 64 64 64 64 63 58 52 49 41 26 22 15 357 341 329 321 317 316 312 310 308 305 303 298 294 295 295 295 294 288 280 275 275 276 274 270 269 272 274 272 271 270 269 261 243 233 226 217 214 214 213 211 211 213 216 221 223 220 219 221 220 219 216 209 205
191 183 179 180 167 166 173 168 185 202 140 107 289 266 123 108 122 141 124 98 86 80 76 76 76 73 68 63 60 58 59 60 62 62 61 59 57 54 47 39 32 23 17 6 356 351 344 335 328 322 320 319 315 310 308 304 300 300 298 295 292 285 278 276 276 275 272 267 267 270 270 269 269 268 266 257 242 234 230 223 217 214 213 212 214 217 215 216 219 218 219 220 219 220 215 208 203
186 189 190 181 174 173 167 159 170 163 130 110 7 259 135 137 147 138 126 124 113 97 87 81 74 69 67 62 57 56 57 58 63 62 59 59 58 54 47 35 25 16 10 3 355 348 341 335 327 322 320 316 314 313 310 303 297 298 297 294 290 284 279 276 274 271 266 260 260 265 264 263 266 267 263 256 246 237 231 225 219 216 217 218 219 218 216 214 216 218 220 221 219 216 210 205 201
186 163 185 193 181 134 109 92 97 119 118 86 37 55 96 102 135 152 171 163 131 109 90 79 73 69 68 61 54 55 58 61 62 56 53 60 56 46 42 37 30 27 24 15 6 356 345 336 327 321 317 314 314 314 310 302 295 296 297 288 280 276 273 274 275 270 262 256 257 260 261 261 262 262 259 254 248 241 234 226 221 219 220 223 223 220 217 216 218 220 221 221 218 212 207 203 200
145 179 189 187 117 109 120 115 21 52 147 110 32 110 125 125 154 174 184 164 135 115 95 85 80 75 70 62 57 59 61 63 62 56 57 61 54 46 51 50 43 34 22 10 2 357 350 344 338 331 326 323 320 315 309 302 295 295 292 279 271 269 267 269 273 270 263 259 257 258 260 262 261 260 257 255 248 241 233 225 222 222 222 223 223 221 220 221 221 223 224 223 220 212 205 202 202
143 181 172 134 80 85 115 132 104 151 156 113 44 146 162 168 159 171 181 169 143 124 107 96 84 77 72 63 60 62 63 65 64 63 64 63 57 55 57 53 45 30 10 357 352 348 346 342 336 332 329 328 327 321 312 305 300 296 289 277 266 263 265 265 264 260 259 260 258 258 261 264 266 262 256 255 251 239 231 225 221 222 223 222 222 224 225 224 223 225 224 222 221 214 206 203 204
133 159 153 144 169 167 154 147 152 156 135 112 110 132 218 208 175 172 181 173 149 128 109 95 79 73 73 64 59 59 59 58 56 52 50 48 46 40 33 28 24 17 2 347 339 333 329 326 323 322 321 321 320 316 309 305 300 293 286 281 272 262 257 256 256 255 257 260 259 258 259 262 266 262 254 254 254 241 230 225 222 221 222 220 221 224 224 221 221 223 222 220 219 212 205 203 201
40 131 150 180 193 169 161 124 145 152 137 136 133 140 242 222 181 181 182 170 147 126 106 93 81 74 71 63 57 54 52 47 40 37 35 33 31 25 19 18 15 13 8 355 345 337 330 324 321 320 320 318 314 308 305 302 299 291 282 277 277 272 263 257 255 259 263 266 267 265 263 263 264 261 253 251 252 240 226 221 219 219 220 219 220 222 220 217 218 219 219 219 217 207 201 199 198
143 158 162 143 94 129 132 94 46 129 142 146 139 176 238 220 134 184 179 160 141 130 118 109 96 85 73 62 56 49 43 38 30 26 24 21 20 16 15 18 21 23 22 17 11 2 352 344 340 338 335 332 324 315 309 306 303 297 288 279 275 275 274 264 254 255 262 266 268 270 267 263 260 256 249 246 246 234 220 216 217 218 218 218 219 218 216 214 213 214 216 218 216 209 203 201 201
155 169 172 153 127 136 152 149 85 64 117 145 151 185 218 83 74 193 174 147 136 133 123 115 106 95 81 66 59 49 34 27 22 18 16 15 16 15 18 24 30 33 30 26 22 14 8 3 359 355 352 348 339 328 319 312 305 300 295 287 275 269 267 255 247 250 257 260 260 262 264 263 260 254 245 241 237 225 215 215 217 217 216 216 216 214 212 212 211 212 214 215 213 212 211 207 204